Regional Weather Roundup
Issued by NWS Bismarck, ND

Home | Current Version | Previous Version | Text Only | Print | Product List | Glossary On
Versions: 1 2 3 4 5 6 7 8 9 10 11 12 13 14 15 16 17 18 19 20 21 22 23 24 25 26 27 28 29 30 31 32 33 34 35 36 37 38 39 40 41 42 43 44 45 46 47 48 49 50
403
ASUS43 KBIS 182102
RWRBIS

NWR BROADCAST TEXT
NATIONAL WEATHER SERVICE BISMARCK ND
300 PM CST THU JAN 18 2018

NOTE: "FAIR" INDICATES FEW OR NO CLOUDS BELOW 12,000 FEET WITH NO
SIGNIFICANT WEATHER AND/OR OBSTRUCTIONS TO VISIBILITY.


CITY           SKY/WX    TMP DP  RH WIND       PRES   REMARKS
WILLISTON      FAIR      38  27  64 SW7       29.65F
MINOT          FAIR      38  26  62 SW18      29.59F
MINOT AFB      FAIR      38  28  66 SW6       29.57F
BISMARCK       FAIR      36  27  69 SW5       29.72F
DICKINSON      FAIR      41  28  60 W15       29.67F
GARRISON         N/A     34  26  72 S5        29.65F
HETTINGER ARPT FAIR      43  27  53 W6        29.73F
JAMESTOWN      FAIR      35  26  69 W7        29.70F
CARRINGTON     FAIR      32  25  74 W7        29.71S
HAZEN          FAIR      37  30  75 SW8       29.68F
LINTON           N/A     39  27  60 SW6       29.75S
MANDAN         FAIR      37  28  70 SW6       29.71F
OAKES            N/A     34  28  80 S7        29.75R
RUGBY          FAIR      28  23  80 S7        29.63F
STANLEY        FAIR      36  28  75 SW12      29.64F
TIOGA          FAIR      34  30  86 SW10      29.64F
WATFORD CITY   FAIR      39  30  70 SW10      29.64F
$$

CITY           SKY/WX    TMP DP  RH WIND       PRES   REMARKS
GRAND FORKS    PTSUNNY   28  22  78 S7        29.71F
GRAND FORKS AF FAIR      29  21  72 S6        29.70F
DEVILS LAKE    FAIR      29  22  75 SW6       29.68F
FARGO          FAIR      28  23  81 SW6       29.78S
CANDO          FAIR      28  21  74 SW6       29.66F
CAVALIER         N/A     28  23  80 S5        29.68F
GRAFTON        FAIR      27  21  80 S6        29.72F WCI  20
GWINNER          N/A     34  27  75 SW9       29.74F
LANGDON        FAIR      25  23  93 SW12      29.65S WCI  14
ROLLA          FAIR      28  21  74 S9        29.59F WCI  20
WALHALLA       FAIR      30  23  74 SE7       29.66F
$$

CITY           SKY/WX    TMP DP  RH WIND       PRES   REMARKS
ABERDEEN       FAIR      40  29  64 S8        29.77F
MOBRIDGE       FAIR      40  28  62 S5        29.73F
BUFFALO          N/A     45  27  49 SW7       29.67F
RAPID CITY     FAIR      66  26  22 E5        29.79F
GLASGOW        FAIR      32  26  78 NE5       29.63F
SIDNEY         FAIR      37  28  70 SW7       29.67F
WOLF POINT     FAIR      28  19  69 CALM      29.65F
GLENDIVE       FAIR      34  25  69 S13       29.69F
MILES CITY     FAIR      34  26  72 S7        29.71F
BAKER          FAIR      43  27  53 SW12      29.73F
$$

CITY           SKY/WX    TMP DP  RH WIND       PRES   REMARKS
BILLINGS       PTSUNNY   47  27  45 W20G26    29.74F
GREAT FALLS    CLOUDY    44  33  65 W14       29.69F
$$





USA.gov is the U.S. government's official web portal to all federal, state and local government web resources and services.